Find Yuxing 3-05

NORAD ID: 68204 Int'l Des: NNA 2026-052 Owner: YUXING/ZHEJ Country: CN operational
LEOCIRCULARRETROGRADESSO

リアルタイム位置

3D地球を読み込み中...

Yuxing 3-05について

説明を読み込み中...

次回通過

Passes for default location (London). Set your location on the main map for personalized predictions.

高度履歴

Loading altitude history...

軌道要素

1 68204U 26052G 26121.11421111 .00007001 00000-0 42027-3 0 9995
2 68204 97.5346 196.6794 0011888 109.5328 250.7187 15.11168856 6943
Epoch: May 1, 2026 • Age: 7 hours

現在のステータス

高度 537.2 km
速度 7.61 km/s
衛星直下点 74.26°N, 42.12°E
打ち上げ日 Mar 16, 2026
運用期間 0.1 years
タイプ other

技術仕様

分類 Payload
質量 50.00 kg
乾燥質量 50.00 kg
総質量 50.00 kg
長さ 1.50 m
直径 1.00 m
スパン 1.50 m
形状 Box
製造者 XINGMU
バスタイプ YX3
フェーズステータス In Orbit
所有者/国 YUXING/ZHEJ/CN

Most Searched